�N����,����,�~����,�C��,���x,�C��,����,���ϕ���,�ő�u�ԕ���,�ő厞����,���˗�,�I�_���x,�n�����x,�ő啗���N��,DTYPE
"18/11/17","00:10",0.0,10.6,86.6,1012.8,304.5,1.2,1.7,318.5,0.00,8.5,13.6,"00:09:24",1
"18/11/17","00:20",0.0,10.6,86.6,1012.8,324.2,1.7,2.0,325.5,0.00,8.5,13.8,"00:12:06",1
"18/11/17","00:30",0.0,10.5,87.6,1012.6,311.9,1.3,1.6,314.0,0.00,8.6,13.7,"00:27:44",1
"18/11/17","00:40",0.0,10.5,88.1,1012.6,296.2,1.1,1.6,303.8,0.00,8.7,13.7,"00:31:12",1
"18/11/17","00:50",0.0,10.6,88.1,1012.6,311.6,0.5,1.0,294.7,0.00,8.8,13.6,"00:48:18",1
"18/11/17","01:00",0.0,10.5,88.7,1012.3,315.3,1.5,1.9,324.9,0.00,8.8,13.7,"00:53:46",1
"18/11/17","01:10",0.0,10.3,89.4,1012.6,318.7,1.6,2.0,325.7,0.00,8.7,13.6,"01:01:04",1
"18/11/17","01:20",0.0,10.4,89.8,1012.8,322.4,1.3,2.2,325.5,0.00,8.8,13.5,"01:18:38",1
"18/11/17","01:30",0.0,10.5,90.3,1012.6,307.2,1.6,2.0,319.4,0.00,9.0,13.7,"01:21:44",1
"18/11/17","01:40",0.0,10.4,90.4,1012.8,314.4,1.3,1.6,311.1,0.00,8.9,13.6,"01:36:24",1
"18/11/17","01:50",0.0,10.6,90.6,1012.8,314.8,1.5,1.8,316.0,0.00,9.2,13.5,"01:45:00",1
"18/11/17","02:00",0.0,10.7,90.5,1012.8,295.1,1.2,1.7,315.1,0.00,9.3,13.6,"01:51:04",1
"18/11/17","02:10",0.0,11.0,90.0,1012.6,303.5,1.5,2.2,324.9,0.00,9.5,13.7,"02:05:52",1
"18/11/17","02:20",0.0,11.2,89.0,1013.0,320.1,1.3,2.1,331.3,0.00,9.5,13.6,"02:16:04",1
"18/11/17","02:30",0.0,11.3,88.3,1012.8,328.3,1.1,1.9,316.8,0.00,9.5,13.7,"02:20:08",1
"18/11/17","02:40",0.0,11.2,88.0,1013.0,316.7,1.6,1.9,326.1,0.00,9.3,13.7,"02:32:34",1
"18/11/17","02:50",0.0,11.4,88.2,1012.6,321.0,2.2,3.7,331.8,0.00,9.6,13.6,"02:49:46",1
"18/11/17","03:00",0.0,11.8,86.1,1012.8,322.8,2.8,5.0,334.4,0.00,9.6,13.7,"02:59:58",1
"18/11/17","03:10",0.0,12.0,84.1,1012.8,326.6,2.8,4.4,314.4,0.00,9.4,13.7,"03:02:50",1
"18/11/17","03:20",0.0,12.0,83.0,1012.6,333.1,3.0,4.8,339.1,0.00,9.2,13.7,"03:10:10",1
"18/11/17","03:30",0.0,12.1,82.5,1012.8,328.6,2.6,4.8,339.7,0.00,9.3,13.6,"03:21:22",1
"18/11/17","03:40",0.0,12.1,82.2,1012.8,326.4,3.0,4.7,334.1,0.00,9.2,13.6,"03:33:00",1
"18/11/17","03:50",0.0,12.1,82.2,1012.6,331.1,3.1,4.7,337.0,0.00,9.2,13.5,"03:45:20",1
"18/11/17","04:00",0.0,12.0,82.8,1012.8,324.6,2.0,2.9,335.5,0.00,9.2,13.7,"03:51:16",1
"18/11/17","04:10",0.0,11.9,83.2,1012.6,319.5,1.7,2.7,337.8,0.00,9.2,13.6,"04:03:00",1
"18/11/17","04:20",0.0,11.9,83.2,1012.3,325.2,1.6,2.1,319.5,0.00,9.2,13.5,"04:11:30",1
"18/11/17","04:30",0.0,11.7,84.1,1012.8,336.0,1.5,2.2,334.6,0.00,9.1,13.5,"04:26:48",1
"18/11/17","04:40",0.0,11.6,85.3,1012.3,316.5,1.6,2.2,323.2,0.00,9.3,13.5,"04:32:18",1
"18/11/17","04:50",0.0,11.5,85.7,1012.6,303.9,1.5,2.0,310.9,0.00,9.2,13.6,"04:49:48",1
"18/11/17","05:00",0.0,11.6,85.8,1012.6,304.6,1.5,2.6,315.6,0.00,9.3,13.6,"04:55:52",1
"18/11/17","05:10",0.0,11.5,86.0,1012.1,291.2,1.1,1.3,311.1,0.00,9.3,13.6,"05:09:34",1
"18/11/17","05:20",0.0,11.4,86.3,1012.3,310.1,1.2,1.9,316.2,0.00,9.2,13.5,"05:12:22",1
"18/11/17","05:30",0.0,11.3,86.8,1012.6,303.8,1.0,1.8,321.3,0.00,9.2,13.5,"05:29:06",1
"18/11/17","05:40",0.0,11.3,87.8,1012.6,304.0,1.6,1.9,314.5,0.00,9.4,13.6,"05:32:04",1
"18/11/17","05:50",0.0,11.1,88.6,1012.8,303.0,1.0,1.7,310.7,0.00,9.3,13.5,"05:40:32",1
"18/11/17","06:00",0.0,11.0,89.0,1012.6,300.6,1.1,1.8,316.9,0.00,9.3,13.6,"05:55:20",1
"18/11/17","06:10",0.0,11.0,89.2,1012.6,296.8,1.2,1.4,281.4,0.00,9.3,13.6,"06:00:42",1
"18/11/17","06:20",0.0,11.2,88.9,1012.6,320.7,2.0,3.3,320.0,0.00,9.5,13.6,"06:14:44",1
"18/11/17","06:30",0.0,11.3,88.5,1012.6,313.7,1.7,1.9,316.2,0.00,9.5,13.5,"06:22:54",1
"18/11/17","06:40",0.0,11.4,87.8,1012.8,318.0,2.0,3.3,335.8,0.00,9.5,13.6,"06:39:52",1
"18/11/17","06:50",0.0,11.8,85.6,1012.6,325.7,3.0,4.3,328.9,0.00,9.5,13.6,"06:45:16",1
"18/11/17","07:00",0.0,12.0,83.9,1012.8,325.7,2.6,4.8,333.4,0.00,9.4,13.5,"06:58:40",1
"18/11/17","07:10",0.0,12.0,82.6,1012.6,331.1,2.8,4.1,336.0,0.00,9.2,13.5,"07:02:00",1
"18/11/17","07:20",0.0,11.8,82.7,1012.8,330.2,2.7,4.1,336.4,0.00,9.0,13.4,"07:12:20",1
"18/11/17","07:30",0.0,11.7,82.8,1012.8,330.3,2.7,4.2,316.2,0.00,8.9,13.6,"07:21:16",1
"18/11/17","07:40",0.0,11.5,83.7,1013.0,331.2,2.5,4.8,335.6,0.00,8.9,13.4,"07:38:30",1
"18/11/17","07:50",0.0,11.8,84.4,1012.8,324.7,2.3,4.0,330.4,0.01,9.3,13.4,"07:40:50",1
"18/11/17","08:00",0.0,12.3,83.0,1013.3,332.0,2.3,3.7,327.3,0.03,9.5,13.5,"07:53:44",1
"18/11/17","08:10",0.0,12.7,81.4,1013.3,326.6,2.2,4.2,338.1,0.05,9.6,13.5,"08:01:52",1
"18/11/17","08:20",0.0,13.4,79.7,1013.3,317.6,2.0,2.9,334.5,0.07,10.0,13.7,"08:13:04",1
"18/11/17","08:30",0.0,14.0,77.7,1013.3,316.2,1.6,2.6,331.6,0.09,10.2,13.5,"08:24:40",1
"18/11/17","08:40",0.0,14.3,75.6,1013.8,306.8,1.5,2.4,337.6,0.12,10.1,13.6,"08:30:32",1
"18/11/17","08:50",0.0,15.0,72.8,1013.5,319.6,1.8,4.1,330.2,0.18,10.2,13.8,"08:44:00",1
"18/11/17","09:00",0.0,14.3,73.7,1013.5,328.7,2.5,4.8,341.5,0.09,9.7,13.8,"08:56:00",1
"18/11/17","09:10",0.0,14.9,72.7,1013.3,313.0,2.1,4.1,330.6,0.17,10.1,13.9,"09:02:32",1
"18/11/17","09:20",0.0,15.5,69.8,1013.5,290.0,1.3,2.7,336.0,0.18,10.1,14.0,"09:16:16",1
"18/11/17","09:30",0.0,15.4,67.6,1013.3,292.9,1.1,2.1,327.2,0.09,9.5,14.1,"09:22:56",1
"18/11/17","09:40",0.0,15.7,66.3,1013.3,271.1,1.1,2.5,327.1,0.15,9.5,14.3,"09:39:12",1
"18/11/17","09:50",0.0,16.1,64.6,1012.8,261.2,1.0,2.8,333.1,0.23,9.5,14.4,"09:41:28",1
"18/11/17","10:00",0.0,16.7,65.2,1013.0,235.0,1.1,2.5,204.0,0.32,10.2,14.4,"09:58:48",1
"18/11/17","10:10",0.0,16.6,64.0,1012.8,232.0,1.6,2.8,235.8,0.34,9.8,14.7,"10:03:36",1
"18/11/17","10:20",0.0,17.5,65.1,1012.3,246.1,1.6,2.9,234.2,0.32,10.9,14.8,"10:13:36",1
"18/11/17","10:30",0.0,17.7,63.4,1012.6,283.4,1.5,3.3,325.5,0.37,10.7,15.2,"10:25:12",1
"18/11/17","10:40",0.0,18.3,62.1,1012.3,280.5,2.0,4.0,296.5,0.38,11.0,14.9,"10:32:24",1
"18/11/17","10:50",0.0,18.0,61.6,1012.6,317.4,2.3,5.1,338.1,0.30,10.6,15.6,"10:41:44",1
"18/11/17","11:00",0.0,17.8,61.4,1012.6,323.9,3.0,7.3,323.1,0.34,10.3,15.6,"10:53:36",1
"18/11/17","11:10",0.0,17.9,62.0,1012.3,331.8,2.7,6.4,341.5,0.35,10.6,16.0,"11:06:56",1
"18/11/17","11:20",0.0,17.3,62.0,1012.1,312.4,3.0,6.3,336.1,0.34,10.0,16.0,"11:17:28",1
"18/11/17","11:30",0.0,16.8,64.3,1012.1,345.6,2.7,5.5,350.1,0.18,10.1,15.9,"11:28:16",1
"18/11/17","11:40",0.0,17.9,62.9,1011.9,345.4,2.5,5.1,326.3,0.34,10.8,16.1,"11:35:52",1
"18/11/17","11:50",0.0,17.9,62.8,1011.9,339.1,2.5,5.4,341.4,0.41,10.8,16.3,"11:44:40",1
"18/11/17","12:00",0.0,18.7,61.7,1011.6,320.5,3.4,6.4,335.2,0.54,11.2,16.6,"11:57:36",1
"18/11/17","12:10",0.0,18.5,61.8,1011.9,328.9,3.2,5.8,343.3,0.47,11.1,16.6,"12:00:56",1
"18/11/17","12:20",0.0,18.2,63.8,1011.9,338.7,3.0,6.2,342.2,0.33,11.3,16.6,"12:17:52",1
"18/11/17","12:30",0.0,17.3,65.6,1011.6,339.9,2.7,5.6,336.9,0.18,10.8,16.7,"12:24:24",1
"18/11/17","12:40",0.0,17.3,63.6,1011.4,352.1,2.5,6.3,321.7,0.10,10.4,16.8,"12:34:24",1
"18/11/17","12:50",0.0,16.7,66.6,1011.6,344.2,2.7,5.9,339.0,0.05,10.5,16.7,"12:48:56",1
"18/11/17","13:00",0.0,16.5,67.3,1011.4,346.9,2.6,5.5,352.2,0.08,10.5,17.0,"12:57:20",1
"18/11/17","13:10",0.0,16.2,65.6,1011.4,346.1,2.5,5.0,319.7,0.09,9.8,16.7,"13:08:00",1
"18/11/17","13:20",0.0,16.5,66.1,1011.2,345.6,1.7,4.2,355.8,0.13,10.2,16.7,"13:10:16",1
"18/11/17","13:30",0.0,16.5,64.4,1011.4,336.5,2.1,3.9,17.5,0.12,9.8,16.8,"13:27:20",1
"18/11/17","13:40",0.0,16.7,63.3,1010.9,330.6,1.2,3.2,346.6,0.09,9.7,16.6,"13:30:48",1
"18/11/17","13:50",0.0,17.7,62.6,1010.9,322.1,1.6,4.1,320.4,0.25,10.5,16.7,"13:48:40",1
"18/11/17","14:00",0.0,17.8,58.3,1010.9,358.7,2.3,5.2,345.5,0.31,9.6,16.9,"13:51:52",1
"18/11/17","14:10",0.0,18.0,58.4,1010.7,357.5,2.5,4.4,345.9,0.32,9.8,17.1,"14:06:40",1
"18/11/17","14:20",0.0,18.0,56.5,1010.4,356.8,2.3,4.3,337.5,0.31,9.3,16.9,"14:16:40",1
"18/11/17","14:30",0.0,18.0,57.4,1010.7,4.3,2.0,4.0,72.1,0.27,9.5,16.9,"14:23:12",1
"18/11/17","14:40",0.0,17.0,59.1,1010.7,345.9,3.2,6.6,346.7,0.19,9.0,17.0,"14:31:04",1
"18/11/17","14:50",0.0,17.3,60.4,1010.7,337.3,3.1,7.1,347.0,0.14,9.6,17.1,"14:45:12",1
"18/11/17","15:00",0.0,16.6,60.9,1010.7,329.6,2.8,5.9,2.3,0.05,9.1,16.9,"14:50:32",1
"18/11/17","15:10",0.0,17.0,60.9,1010.7,343.0,2.1,4.3,328.8,0.10,9.4,16.8,"15:02:40",1
"18/11/17","15:20",0.0,16.5,60.0,1011.2,334.7,3.2,8.7,341.8,0.10,8.8,16.9,"15:19:28",1
"18/11/17","15:30",0.0,16.5,59.9,1011.9,327.7,3.6,6.0,325.3,0.05,8.7,16.7,"15:24:40",1
"18/11/17","15:40",0.0,16.1,61.5,1012.3,336.2,3.6,5.5,323.0,0.05,8.7,16.8,"15:33:28",1
"18/11/17","15:50",0.0,16.1,62.2,1012.1,334.7,2.5,5.8,323.6,0.05,8.9,16.7,"15:43:36",1
"18/11/17","16:00",0.0,16.1,62.1,1011.9,351.2,1.5,4.0,341.0,0.03,8.9,16.8,"15:50:24",1
"18/11/17","16:10",0.0,16.2,62.8,1012.3,334.2,1.6,3.6,332.7,0.04,9.1,16.5,"16:07:28",1
"18/11/17","16:20",0.0,16.1,63.5,1012.6,323.6,2.0,3.3,318.5,0.05,9.2,16.4,"16:10:02",1
"18/11/17","16:30",0.0,15.6,65.4,1012.3,320.1,2.6,5.6,324.6,0.01,9.2,16.3,"16:28:48",1
"18/11/17","16:40",0.0,15.1,68.1,1012.8,326.4,3.1,5.0,338.7,0.00,9.3,16.3,"16:31:36",1
"18/11/17","16:50",0.0,14.9,69.6,1012.3,331.7,3.1,5.2,344.6,0.00,9.4,16.1,"16:41:36",1
"18/11/17","17:00",0.0,14.6,70.6,1012.6,339.8,2.6,4.5,352.1,0.00,9.4,16.2,"16:56:00",1
"18/11/17","17:10",0.0,14.2,72.1,1013.0,336.5,2.0,3.7,345.9,0.00,9.3,16.0,"17:06:00",1
"18/11/17","17:20",0.0,13.8,73.0,1013.3,327.3,1.5,2.6,338.2,0.00,9.1,15.8,"17:11:12",1
"18/11/17","17:30",0.0,13.5,74.7,1013.0,294.2,1.3,2.5,305.1,0.00,9.1,15.9,"17:25:22",1
"18/11/17","17:40",0.0,13.4,76.0,1013.3,303.0,1.6,3.2,313.1,0.00,9.3,15.7,"17:31:52",1
"18/11/17","17:50",0.0,13.2,76.8,1013.3,299.3,1.6,2.6,329.3,0.00,9.3,15.5,"17:49:16",1
"18/11/17","18:00",0.0,13.0,76.4,1013.0,308.1,1.6,3.4,329.7,0.00,9.0,15.5,"17:51:12",1
"18/11/17","18:10",0.0,12.4,78.3,1013.0,300.1,1.5,1.9,317.3,0.00,8.8,15.2,"18:07:32",1
"18/11/17","18:20",0.0,11.9,80.0,1013.5,316.9,1.3,1.9,319.7,0.00,8.6,15.2,"18:10:30",1
"18/11/17","18:30",0.0,11.3,82.1,1013.5,323.7,1.6,2.0,329.1,0.00,8.4,15.0,"18:26:06",1
"18/11/17","18:40",0.0,10.9,84.1,1013.8,318.1,1.7,2.1,332.5,0.00,8.4,14.8,"18:31:24",1
"18/11/17","18:50",0.0,10.8,85.7,1014.0,303.3,1.8,2.5,311.8,0.00,8.5,14.8,"18:42:40",1
"18/11/17","19:00",0.0,10.6,85.5,1013.5,322.1,1.6,1.9,318.7,0.00,8.3,14.7,"18:57:00",1
"18/11/17","19:10",0.0,10.4,87.1,1014.0,308.0,1.5,2.0,308.0,0.00,8.4,14.9,"19:04:16",1
"18/11/17","19:20",0.0,10.3,87.5,1013.8,314.3,1.8,2.6,325.2,0.00,8.4,14.7,"19:15:12",1
"18/11/17","19:30",0.0,10.2,87.7,1014.2,319.3,1.8,2.8,318.8,0.00,8.3,14.6,"19:29:52",1
"18/11/17","19:40",0.0,9.9,87.5,1013.8,319.9,0.8,2.4,332.4,0.00,8.0,14.2,"19:30:16",1
"18/11/17","19:50",0.0,9.5,88.1,1014.0,293.7,1.1,2.4,314.1,0.00,7.7,14.5,"19:49:52",1
"18/11/17","20:00",0.0,9.5,90.1,1013.8,322.1,2.0,2.6,321.2,0.00,8.0,14.2,"19:57:28",1
"18/11/17","20:10",0.0,9.5,90.1,1013.5,324.7,2.3,2.7,321.5,0.00,8.0,14.4,"20:03:20",1
"18/11/17","20:20",0.0,9.7,89.9,1013.5,320.7,2.3,3.6,327.9,0.00,8.2,14.1,"20:12:40",1
"18/11/17","20:30",0.0,9.4,90.5,1013.3,301.2,1.2,2.0,322.2,0.00,8.0,13.8,"20:28:16",1
"18/11/17","20:40",0.0,9.5,91.0,1013.8,308.7,2.2,3.7,321.1,0.00,8.1,13.9,"20:39:04",1
"18/11/17","20:50",0.0,9.8,90.7,1013.8,320.6,3.4,4.3,328.5,0.00,8.4,13.7,"20:44:40",1
"18/11/17","21:00",0.0,9.9,90.6,1013.8,325.7,2.6,4.0,329.6,0.00,8.5,13.7,"20:50:24",1
"18/11/17","21:10",0.0,9.9,90.0,1013.5,327.5,2.1,3.6,330.9,0.00,8.4,13.7,"21:09:04",1
"18/11/17","21:20",0.0,9.8,90.3,1013.5,328.8,2.8,4.2,333.6,0.00,8.3,13.7,"21:16:48",1
"18/11/17","21:30",0.0,9.6,90.4,1013.5,327.9,2.8,3.7,328.7,0.00,8.1,13.7,"21:26:16",1
"18/11/17","21:40",0.0,9.7,90.6,1013.8,315.9,2.6,3.4,336.1,0.00,8.3,13.6,"21:30:32",1
"18/11/17","21:50",0.0,9.6,90.6,1014.0,323.5,2.6,3.6,339.3,0.00,8.2,13.6,"21:49:12",1
"18/11/17","22:00",0.0,9.6,91.1,1014.0,331.8,3.2,4.3,334.4,0.00,8.3,13.6,"21:59:28",1
"18/11/17","22:10",0.0,10.3,91.1,1014.0,329.2,3.4,5.5,340.4,0.00,9.0,13.4,"22:08:00",1
"18/11/17","22:20",0.0,10.4,90.6,1014.5,331.1,3.0,4.5,329.5,0.00,9.0,13.5,"22:13:14",1
"18/11/17","22:30",0.0,10.5,89.9,1014.0,332.1,2.8,4.5,323.9,0.00,9.0,13.3,"22:20:40",1
"18/11/17","22:40",0.0,10.3,89.9,1014.0,334.2,2.5,4.2,335.0,0.00,8.8,13.4,"22:36:50",1
"18/11/17","22:50",0.0,9.9,89.6,1014.2,338.3,2.1,3.3,330.3,0.00,8.3,13.5,"22:42:16",1
"18/11/17","23:00",0.0,9.6,90.3,1013.5,338.3,2.5,4.1,336.2,0.00,8.1,13.4,"22:55:04",1
"18/11/17","23:10",0.0,9.3,90.3,1013.5,333.4,2.8,4.7,334.3,0.00,7.8,13.2,"23:02:24",1
"18/11/17","23:20",0.0,9.3,90.8,1013.8,331.8,3.1,4.4,329.4,0.00,7.9,13.1,"23:10:24",1
"18/11/17","23:30",0.0,9.2,90.8,1013.5,329.1,3.0,4.2,326.7,0.00,7.8,13.2,"23:22:32",1
"18/11/17","23:40",0.0,9.4,91.3,1013.8,331.6,2.2,3.2,326.1,0.00,8.1,13.0,"23:32:56",1
"18/11/17","23:50",0.0,9.5,91.3,1013.8,337.4,2.1,3.3,329.5,0.00,8.2,13.1,"23:41:36",1
"18/11/17","24:00",0.0,9.2,91.0,1013.5,332.7,2.5,3.9,332.4,0.00,7.8,13.0,"23:58:08",1
